Minatare, NE

1:54 AM MST on February 08, 2016 (GMT -0700)
Heilig

Weather History for KBFF - April, 2014

Change the Weather History Date:

Monday, April 7, 2014

  Actual Average Record
Temperature  
Mean Temperature 45 °F 44 °F  
Max Temperature 56 °F 59 °F 84 °F (1988)
Min Temperature 33 °F 29 °F 8 °F (1898)
Degree Days  
Heating Degree Days 20 21  
Month to date heating degree days 163 153  
Since 1 July heating degree days 6026 5894  
Cooling Degree Days 0 0  
Month to date cooling degree days 0 0  
Year to date cooling degree days 0 0  
Moisture  
Dew Point 25 °F    
Average Humidity 52    
Maximum Humidity 82    
Minimum Humidity 22    
Precipitation  
Precipitation 0.00 in 0.05 in 1.23 in (1906)
Month to date precipitation T 0.35  
Year to date precipitation 2.45 2.36  
Snow  
Snow 0.00 in 0.20 in 4.00 in (1897)
Month to date snowfall 0.0 1.7  
Since 1 July snowfall 60.4 37.9  
Snow Depth 0.00 in    
Sea Level Pressure  
Sea Level Pressure 30.09 in    
Wind  
Wind Speed 16 mph (NW)    
Max Wind Speed 36 mph    
Max Gust Speed 45 mph    
Visibility 10 miles    
Events      
T = Trace of Precipitation, MM = Missing Value Source: NWS Daily Summary

Daily Weather History Graph

Daily Weather History Graph

Search for Another Location

Airport or City:

Trip Planner

Search our weather history database for the weather conditions in past years. The results will help you decide how hot, cold, wet, or windy it might be!

Date:

Astronomy

Apr. 07, 2014 Rise Set
Actual Time 6:27 AM MDT 7:26 PM MDT
Civil Twilight 5:58 AM MDT 7:55 PM MDT
Nautical Twilight 5:24 AM MDT 8:29 PM MDT
Astronomical Twilight 4:49 AM MDT 9:04 PM MDT
Moon 12:22 PM MDT (4/7) 2:07 AM MDT (4/7)
Length of Visible Light 13h 56m
Length of Day
12h 59m
First Quarter, 54% of the Moon is Illuminated
Apr 7
First Quarter
Apr 15
Full
Apr 22
Last Quarter
Apr 29
New
May 6
First Quarter

Hourly Weather History & Observations

Time (MDT) Temp. Windchill Dew Point Humidity Pressure Visibility Wind Dir Wind Speed Gust Speed Precip Events Conditions
12:53 AM 36.0 °F 29.6 °F 30.9 °F 82% 29.96 in 10.0 mi WNW 8.1 mph - N/A   Partly Cloudy
1:53 AM 37.9 °F 32.1 °F 30.9 °F 76% 29.96 in 10.0 mi WNW 8.1 mph - N/A   Scattered Clouds
2:53 AM 34.0 °F 27.2 °F 28.9 °F 82% 29.99 in 10.0 mi West 8.1 mph - N/A   Clear
3:53 AM 33.1 °F 26.1 °F 28.9 °F 85% 30.02 in 10.0 mi WNW 8.1 mph - N/A   Scattered Clouds
4:53 AM 35.1 °F 28.6 °F 30.0 °F 82% 30.02 in 10.0 mi WNW 8.1 mph - N/A   Clear
5:53 AM 35.1 °F 28.6 °F 30.0 °F 82% 30.06 in 10.0 mi WNW 8.1 mph - N/A   Clear
6:53 AM 36.0 °F 27.1 °F 30.0 °F 79% 30.09 in 10.0 mi West 13.8 mph - N/A   Clear
7:53 AM 39.9 °F 31.8 °F 30.9 °F 70% 30.12 in 10.0 mi WNW 15.0 mph - N/A   Clear
8:53 AM 45.0 °F 36.6 °F 30.9 °F 58% 30.12 in 10.0 mi NNW 21.9 mph 32.2 mph N/A   Mostly Cloudy
9:53 AM 48.0 °F - 30.0 °F 50% 30.14 in 10.0 mi NNW 28.8 mph 34.5 mph N/A   Partly Cloudy
10:53 AM 51.1 °F - 26.1 °F 38% 30.13 in 10.0 mi NNW 28.8 mph 38.0 mph N/A   Partly Cloudy
11:53 AM 51.1 °F - 19.0 °F 28% 30.12 in 10.0 mi NNW 33.4 mph 41.4 mph N/A   Scattered Clouds
12:53 PM 52.0 °F - 18.0 °F 26% 30.10 in 10.0 mi NNW 27.6 mph 41.4 mph N/A   Scattered Clouds
1:53 PM 54.0 °F - 19.0 °F 25% 30.09 in 10.0 mi NNW 28.8 mph 42.6 mph N/A   Mostly Cloudy
2:53 PM 55.0 °F - 18.0 °F 23% 30.09 in 10.0 mi NW 29.9 mph 40.3 mph N/A   Mostly Cloudy
3:53 PM 53.1 °F - 21.0 °F 29% 30.10 in 10.0 mi NNW 27.6 mph 35.7 mph N/A   Mostly Cloudy
4:53 PM 55.0 °F - 19.9 °F 25% 30.09 in 10.0 mi NNW 20.7 mph 31.1 mph N/A   Mostly Cloudy
5:53 PM 53.1 °F - 19.9 °F 27% 30.11 in 10.0 mi NNW 20.7 mph 29.9 mph N/A   Scattered Clouds
6:53 PM 51.1 °F - 19.9 °F 29% 30.11 in 10.0 mi NNW 17.3 mph 27.6 mph N/A   Clear
7:53 PM 45.0 °F 40.1 °F 21.0 °F 39% 30.13 in 10.0 mi North 9.2 mph - N/A   Clear
8:53 PM 39.0 °F 34.0 °F 21.0 °F 49% 30.14 in 10.0 mi NE 6.9 mph - N/A   Clear
9:53 PM 39.0 °F - 21.9 °F 50% 30.15 in 10.0 mi Calm Calm - N/A   Partly Cloudy
10:53 PM 37.9 °F 33.5 °F 23.0 °F 55% 30.14 in 10.0 mi WNW 5.8 mph - N/A   Overcast
11:53 PM 37.9 °F 33.5 °F 24.1 °F 57% 30.15 in 10.0 mi NW 5.8 mph - N/A   Overcast